Regional Weather Roundup
Issued by NWS

Home | Current Version | Previous Version | Text Only | Print | Product List | Glossary On
Versions: 1 2 3 4 5 6 7 8 9 10 11 12 13 14 15 16 17 18 19 20 21 22 23 24 25 26 27 28 29 30 31 32 33 34 35 36 37 38 39 40 41 42 43 44 45 46 47 48 49 50
000
ASUS45 KSLC 251410
RWRUT

UTAH REGIONAL WEATHER ROUNDUP
NATIONAL WEATHER SERVICE SALT LAKE CITY UT
800 AM MDT MON MAY 25 2015

UTZ001>011-023>025-251500-

NORTHERN UTAH

CITY           SKY/WX    TMP DP  RH WIND       PRES   REMARKS
BRIGHAM CITY   PTSUNNY   54  50  86 CALM      29.96R
HILL AFB       PTSUNNY   50  46  87 SE9       29.96R
LOGAN          PTSUNNY   53  48  83 CALM      29.95R
OGDEN          PTSUNNY   51  46  83 S8        29.95R
PROVO AIRPORT  NOT AVBL
SALT LAKE CITY PTSUNNY   54  49  83 SE7       29.95R
VERNAL         CLOUDY    47  44  90 SE3       29.99R
WENDOVER       CLOUDY    57  46  67 E8        29.96R
HEBER CITY     CLOUDY    45  43  93 CALM      30.00R
WEST JORDAN    CLOUDY    52  48  87 S3        29.97R

$$

UTZ012>022-026-027-251500-

SOUTHERN/CENTRAL UTAH

CITY           SKY/WX    TMP DP  RH WIND       PRES   REMARKS
BLANDING       CLOUDY    48  45  88 CALM      30.07R
BRYCE CANYON   MOSUNNY   47  39  74 N5        30.07R
CEDAR CITY     SUNNY     49  44  83 W3        30.01R
DELTA          CLOUDY    52  45  78 S9        29.98S
HANKSVILLE     CLOUDY    54  45  71 N3        29.97R
MILFORD        SUNNY     51  45  79 SW13      29.99R
MOAB/CYNLANDS  MOSUNNY   54  44  69 E5        29.94R
PRICE          MOSUNNY   52  39  61 SE7       29.98R
ST GEORGE      PTSUNNY   57  48  72 CALM      29.98R
KANAB          MOSUNNY   50  50 100 CALM      30.06R

$$

REGIONAL REPORTS     COLORADO/ARIZONA

CITY           SKY/WX    TMP DP  RH WIND       PRES   REMARKS
CRAIG, CO      CLOUDY    45  41  86 E5        30.01S
GRAND JUNCTION CLOUDY    49  45  86 E7        29.98R
RIFLE          CLOUDY    46  42  86 CALM      30.01R
MONTROSE       MOSUNNY   46  41  82 SE10      30.02S
CORTEZ         CLOUDY    50  45  83 E8        30.01R
PAGE, AZ       CLOUDY    57  49  74 CALM      29.97R
GRAND CANYON   LGT RAIN  45  43  93 CALM      30.08R
KINGMAN        PTSUNNY   59  49  69 CALM      29.97R
FLAGSTAFF      CLOUDY    45  43  93 W5        30.09R

$$

REGIONAL REPORTS    NEVADA/IDAHO/WYOMING

CITY           SKY/WX    TMP DP  RH WIND       PRES   REMARKS
LAS VEGAS, NV  MOSUNNY   64  54  69 S5        29.90R
ELY            SUNNY     40  37  89 S10       30.05R WCI  33
ELKO           CLOUDY    47  44  90 CALM      30.00R
POCATELLO, ID  MOSUNNY   49  47  93 CALM      29.96R
BURLEY         MOSUNNY   51  45  79 E3        29.93R
EVANSTON, WY   CLOUDY    42  41  96 W8        30.01S
ROCK SPRINGS   CLOUDY    43  39  86 CALM      30.01R
KEMMERER       CLOUDY    43  41  93 CALM      30.02R

$$



USA.gov is the U.S. government's official web portal to all federal, state and local government web resources and services.